Miscellaneous Local Product
Issued by NWS Hastings, NE

Home | Current Version | Previous Version | Graphics & Text | Print | Product List | Glossary On
Versions: 1 2 3 4 5 6 7 8 9 10 11 12 13 14 15 16 17 18 19 20 21 22 23 24 25 26 27 28 29 30 31 32 33 34 35 36 37 38 39 40 41 42 43 44 45 46 47 48 49 50
000
AXUS43 KGID 261402
MISGRI

GID CWA HOURLY WEATHER ROUNDUP
NATIONAL WEATHER SERVICE HASTINGS NE
900 AM CDT SUN MAR 26 2017

NOTE: "FAIR" INDICATES FEW OR NO CLOUDS BELOW 12,000 FEET WITH NO
SIGNIFICANT WEATHER AND/OR OBSTRUCTIONS TO VISIBILITY.

...SOUTH CENTRAL NEBRASKA...

CITY           SKY/WX    TMP DP  RH WIND       PRES   REMARKS
GRAND ISLAND   CLOUDY    39  39 100 E3        29.91R FOG
HASTINGS       CLOUDY    40  39  97 CALM      29.91R FOG
KEARNEY        CLOUDY    39  37  93 CALM      29.91R
ORD            FOG       40  38  93 CALM      29.89R VSB 1/2
YORK           CLOUDY    39  39 100 CALM      29.91R FOG
AURORA         CLOUDY    38  38 100 CALM      29.91R FOG
LEXINGTON      CLOUDY    40  37  89 CALM      29.90R
HOLDREGE       CLOUDY    40  39  97 CALM      29.90R FOG
HEBRON         CLOUDY    40  39  98 CALM      29.92R FOG

...NEBRASKA PANHANDLE...

CITY           SKY/WX    TMP DP  RH WIND       PRES   REMARKS
CHADRON        CLOUDY    44  33  65 N7        29.87R
ALLIANCE       CLOUDY    39  37  92 CALM      29.83R
SCOTTSBLUFF    CLOUDY    44  31  60 NW8       29.84R
SIDNEY         LGT RAIN  42  34  73 S8        29.83R

...WESTERN AND NORTH CENTRAL NEBRASKA...

CITY           SKY/WX    TMP DP  RH WIND       PRES   REMARKS
VALENTINE      CLOUDY    39  36  89 SW6       29.87S WCI  35
AINSWORTH      FOG       38  38 100 SW6       29.88S VSB 1/2 WCI  34
ONEILL         FOG       39  39  99 CALM      29.91R VSB 1/4
BROKEN BOW     CLOUDY    41  40  96 W6        29.88R FOG
IMPERIAL       CLOUDY    39  38  96 SE8       29.86R FOG     WCI  33
NORTH PLATTE   CLOUDY    41  37  86 NW5       29.88R
MCCOOK         CLOUDY    40  40 100 S5        29.89R FOG

...EASTERN NEBRASKA...

CITY           SKY/WX    TMP DP  RH WIND       PRES   REMARKS
NORFOLK        CLOUDY    39  36  89 N3        29.91R
SO SIOUX CITY  CLOUDY    40  38  93 NE6       29.92R
TEKAMAH        CLOUDY    41  38  89 N9        29.90F
COLUMBUS       CLOUDY    39  36  87 CALM      29.92S
ALBION         CLOUDY    41  38  88 NE3       29.90S FOG
OMAHA EPPLEY   CLOUDY    42  38  85 N8        29.90S FOG
OFFUTT AFB     CLOUDY    42  39  89 N6        29.90S
MILLARD        CLOUDY    43  40  91 CALM      29.91R
LINCOLN        CLOUDY    41  39  93 NW6       29.93R
NEBRASKA CITY  CLOUDY    41  41 100 N5        29.90S FOG
BEATRICE       CLOUDY    41  40  97 CALM      29.91S FOG
FALLS CITY     CLOUDY    43  41  93 N6        29.89F

...NORTHERN KANSAS...

CITY           SKY/WX    TMP DP  RH WIND       PRES   REMARKS
GOODLAND       FOG       37  37 100 NE10      29.81R VSB 1/4 WCI  30
HILL CITY      CLOUDY    41  41 100 E7        29.88S FOG
NORTON         CLOUDY    39  36  87 CALM      29.89R
PHILLIPSBURG   CLOUDY    41  41 100 CALM      29.91S FOG
HAYS             N/A     42  41  96 E9        29.87F FOG
RUSSELL        CLOUDY    42  41  96 CALM      29.89R
CONCORDIA      CLOUDY    41  41 100 CALM      29.92S FOG
SALINA         CLOUDY    45  42  89 CALM      29.94R
TOPEKA         CLOUDY    45  43  93 CALM      29.93R



USA.gov is the U.S. government's official web portal to all federal, state and local government web resources and services.